Theta_e
308 307 306 308 309 309 308 308 309 310 311 311 312 313 313 314 314 313 314 317 321 325 326 325 323 320 318 317 316 316 316 316 316 316 315 313 312 311 310 310 311 311 311 312 312 312 312 312 312 311 310 309 307 305 303 301 299 297 295 294 294 294 294 295 295 295 295 295 295 295 295 294 294 294 293 293 292 292 292 292 293 294 295 295 296 297
306 305 304 305 307 308 306 305 306 308 309 309 309 310 310 310 310 310 310 312 315 319 321 321 319 317 315 314 313 312 312 311 311 311 311 310 310 310 310 310 311 311 311 311 312 311 311 310 310 309 308 306 304 302 300 297 295 294 293 293 293 293 294 294 294 294 294 294 294 294 293 293 293 292 292 291 291 292 293 293 294 294 295 296 296 297
304 303 303 303 305 306 305 304 304 306 307 307 307 307 308 308 308 308 307 308 310 313 316 316 316 315 314 312 310 309 308 308 307 307 308 308 309 310 310 311 311 311 311 311 310 310 309 308 306 305 304 302 300 298 295 293 292 292 291 291 292 292 292 292 292 292 292 292 292 292 292 291 291 291 291 291 292 292 293 293 294 294 295 296 296 296
303 302 302 302 303 304 304 303 303 304 305 306 306 307 307 308 307 306 305 305 307 309 312 314 315 314 313 311 308 307 307 306 306 306 307 308 309 310 311 311 311 311 311 310 309 308 306 304 302 300 298 297 295 293 292 291 290 290 290 290 290 290 290 290 290 291 290 290 291 290 290 290 290 290 290 291 292 292 293 293 294 294 295 295 296 296
302 301 301 301 301 301 301 301 302 303 304 304 305 305 306 306 305 304 303 303 304 306 309 311 313 313 311 309 307 306 306 306 307 307 307 308 309 310 311 311 311 311 310 309 307 304 301 298 296 295 294 293 292 291 290 290 290 290 290 290 290 290 290 290 290 290 290 290 290 290 290 290 290 290 291 291 292 292 293 293 294 294 295 295 295 296
301 300 300 300 299 299 299 299 300 301 302 302 302 303 303 303 302 302 301 301 301 302 304 307 308 308 307 306 304 304 305 306 306 307 307 307 307 308 309 310 310 309 307 305 302 299 296 294 292 291 291 290 290 290 290 290 290 290 290 290 290 290 290 290 290 290 290 290 290 290 290 290 290 291 291 291 292 292 293 293 294 294 294 294 295 295
300 299 299 299 298 297 297 297 298 299 300 300 300 300 300 300 300 300 300 300 300 300 301 302 303 304 304 303 303 303 303 304 304 305 305 305 304 305 305 305 304 303 301 299 297 294 293 291 291 290 290 290 290 290 290 290 290 290 290 290 290 290 290 290 290 290 290 290 290 290 290 290 291 291 291 292 292 292 293 293 293 293 294 294 294 294
298 297 298 297 297 296 296 296 296 297 298 298 298 298 298 298 299 299 299 299 299 300 300 300 301 302 302 302 302 302 302 302 302 302 302 301 300 299 299 298 297 296 295 294 293 292 291 291 290 290 290 290 290 290 290 290 290 290 290 290 289 289 289 289 289 289 289 290 290 290 290 291 291 291 291 292 292 292 292 293 293 293 293 293 293 293
297 296 296 296 295 295 294 294 295 296 297 297 297 297 297 297 298 298 298 299 299 299 299 299 299 300 300 301 301 301 301 301 301 301 300 298 296 295 294 293 293 292 292 291 291 291 291 291 291 291 291 291 290 290 290 290 290 290 289 289 289 289 289 289 289 289 290 290 290 290 290 291 291 291 292 292 292 292 292 292 292 292 292 292 293 293
296 295 295 294 295 294 294 294 294 295 296 297 297 298 297 297 296 296 297 297 297 297 298 298 298 298 298 299 299 300 299 299 299 299 298 296 295 293 293 292 292 291 291 291 291 291 291 291 291 291 291 290 290 290 290 290 290 289 289 289 289 289 289 289 289 289 290 290 290 290 290 291 291 291 291 291 291 291 291 291 291 291 292 292 292 292
295 295 294 294 294 294 294 294 294 295 296 297 297 297 298 297 297 296 295 294 295 296 296 297 297 297 297 297 297 297 297 297 297 296 296 295 294 294 293 293 293 292 291 291 291 291 291 291 291 291 290 290 290 290 290 290 289 289 289 289 289 289 289 289 289 289 289 290 290 290 290 290 291 291 291 291 291 291 291 291 291 291 291 291 291 291
294 294 294 294 294 294 294 294 294 294 296 296 296 297 297 297 298 297 295 293 293 294 295 295 296 296 296 295 295 295 296 295 295 295 295 295 294 294 294 293 293 292 291 291 291 290 290 290 290 290 290 290 290 290 290 289 289 289 289 289 289 289 289 289 289 289 289 289 290 290 290 290 290 290 291 291 291 291 291 290 290 290 290 290 290 291
294 294 294 294 294 293 293 293 293 294 295 296 296 296 296 296 297 297 296 294 293 293 294 294 294 294 294 294 294 294 294 294 294 294 294 294 294 294 294 293 292 291 291 291 290 290 290 290 290 290 290 290 290 290 289 289 289 289 289 289 289 289 289 289 289 289 289 290 290 290 290 290 290 290 290 291 291 290 290 290 290 290 290 290 290 290
294 294 294 294 293 293 293 293 294 294 295 296 297 297 296 296 297 297 296 294 293 293 293 293 292 292 292 292 292 293 293 293 293 293 293 293 293 293 292 291 291 291 290 290 290 290 290 290 290 290 290 290 289 289 289 289 289 289 289 289 289 288 289 289 289 289 289 289 290 290 290 290 290 290 290 290 290 290 290 290 290 290 290 290 290 290
295 295 295 294 293 293 293 293 294 294 295 296 296 296 296 296 296 296 296 293 292 292 293 292 291 291 291 291 291 291 292 292 293 293 292 292 292 292 291 290 290 290 290 289 289 289 289 289 290 290 289 289 289 288 288 289 289 289 289 289 288 288 288 289 289 289 289 289 290 290 290 290 290 290 290 290 290 290 290 290 290 290 290 290 290 290
295 295 295 294 294 294 294 294 294 295 295 295 295 296 296 295 295 296 295 293 292 291 292 291 290 290 290 290 290 291 292 292 292 292 292 292 292 291 290 290 290 289 289 289 289 289 289 289 289 289 289 289 288 288 289 289 289 289 289 288 288 288 289 289 289 289 289 289 290 290 290 290 290 290 290 290 290 290 290 290 290 290 290 290 290 290
296 296 296 295 295 294 294 294 294 295 294 294 295 295 295 295 295 295 294 293 292 291 291 291 291 290 289 289 290 291 291 291 292 292 291 291 291 290 289 289 289 289 289 288 288 289 289 289 289 289 288 288 288 288 289 289 289 289 288 288 289 289 289 289 289 289 289 290 290 290 290 290 290 290 290 290 290 290 290 290 290 290 290 290 290 290
297 297 297 296 295 294 294 294 294 294 294 294 294 294 294 295 294 294 294 293 292 292 292 292 292 291 290 289 290 291 291 291 291 291 290 290 290 289 288 288 288 288 288 288 288 288 289 289 288 288 288 288 288 288 289 289 289 289 289 289 289 289 289 289 289 289 290 290 290 290 290 290 290 290 290 290 290 290 290 290 290 290 290 290 290 290
297 297 297 296 295 294 294 294 294 294 294 293 293 293 293 293 293 293 293 293 292 292 292 292 291 290 290 290 291 291 290 290 290 290 289 289 288 288 288 288 288 288 288 288 288 288 288 288 288 288 288 288 288 288 288 289 289 289 289 289 289 289 290 290 290 290 290 290 290 290 290 290 290 290 290 290 290 290 290 290 290 290 290 290 290 290
298 298 297 297 296 294 294 294 294 294 294 294 294 293 293 293 292 292 292 292 292 292 292 291 291 290 290 291 291 291 290 289 288 288 288 288 288 287 287 288 288 288 288 288 288 288 288 288 288 288 288 288 288 288 288 288 288 289 289 289 289 290 290 290 290 290 290 290 290 290 290 290 290 290 290 290 290 290 290 290 290 290 290 290 290 290
298 298 298 297 296 295 294 294 294 294 295 295 294 294 293 292 292 292 291 291 291 291 291 291 291 291 291 291 291 290 289 288 287 287 287 287 287 287 287 288 288 288 288 287 287 287 288 288 288 288 288 288 288 288 288 288 288 288 289 289 289 290 290 290 290 290 290 290 290 290 290 290 290 290 290 290 290 290 290 290 290 290 290 290 290 290
301 299 299 298 298 297 296 296 295 295 295 295 295 294 294 293 292 292 291 291 291 291 291 291 291 291 291 291 290 289 288 287 287 288 288 287 287 287 287 287 288 287 287 287 287 287 287 288 288 288 287 287 287 287 287 287 288 288 288 289 289 289 290 290 290 290 290 290 290 290 290 290 290 290 290 290 290 290 290 290 290 290 290 290 290 290
303 301 300 299 298 298 298 297 296 295 295 295 295 296 295 295 294 293 292 292 292 291 291 291 291 290 289 289 288 288 287 287 287 288 288 288 287 287 287 287 287 287 287 287 288 288 287 287 287 287 287 287 287 287 287 287 287 288 288 289 289 289 289 289 289 289 289 289 289 290 290 290 290 290 290 290 290 290 290 290 290 290 290 290 290 290
302 302 300 299 298 298 297 297 296 295 295 295 295 296 296 296 295 295 294 293 293 292 292 291 289 288 287 287 287 287 287 287 287 287 288 288 287 287 287 287 287 287 287 288 288 288 287 287 287 287 287 287 287 287 287 287 288 288 289 289 289 289 289 289 289 289 289 289 289 289 289 289 289 289 289 289 289 290 290 290 290 290 290 290 290 290
301 300 300 299 298 297 297 297 296 296 295 294 295 295 295 295 294 294 294 293 293 292 290 289 287 286 286 286 286 286 287 287 287 288 288 287 286 286 287 287 287 287 287 287 287 288 287 287 287 287 287 287 287 287 287 288 288 289 289 289 288 288 288 288 288 288 288 289 289 289 289 289 289 289 289 289 289 289 289 289 290 290 290 290 290 290
299 299 298 297 297 297 296 296 296 295 295 294 294 294 294 294 293 292 292 291 290 290 288 287 286 285 285 286 286 286 286 287 287 288 288 287 286 286 287 287 287 287 287 287 287 287 287 287 287 287 287 287 287 287 287 288 288 288 288 288 288 288 287 288 288 288 288 288 288 288 288 288 288 288 288 288 289 289 289 289 289 289 289 289 289 289
297 296 296 296 296 296 296 295 295 295 294 294 294 294 294 293 292 290 289 289 289 289 288 287 286 285 286 286 286 286 286 287 287 287 287 287 287 286 286 286 287 287 287 287 287 287 287 287 287 287 287 287 287 287 287 288 288 288 288 287 287 287 287 287 287 287 287 287 287 287 288 288 288 288 288 288 288 288 289 289 289 289 289 289 288 288
294 294 294 294 294 295 295 295 294 294 293 293 293 294 294 293 291 289 288 289 289 289 288 287 286 286 286 286 286 286 286 287 287 287 287 287 287 286 286 286 286 287 287 287 287 287 287 287 287 287 287 287 287 287 287 288 287 287 287 287 287 287 287 287 287 287 287 287 287 287 287 287 287 287 288 288 288 288 288 288 288 288 288 288 288 288
291 291 292 292 292 292 293 293 293 293 292 292 292 292 293 293 292 291 290 290 289 288 288 288 287 287 286 285 285 286 286 287 287 287 287 287 286 286 286 286 286 287 287 287 286 287 287 287 287 287 287 287 287 287 287 287 287 287 287 287 287 287 287 287 287 286 286 286 286 286 286 287 287 287 287 287 287 287 288 288 288 288 288 288 287 288
290 291 290 290 290 290 290 290 291 291 291 291 291 291 291 291 291 291 292 291 289 288 288 288 288 287 286 285 285 286 286 287 287 287 287 287 286 286 286 286 286 286 287 287 287 287 286 286 287 287 287 287 287 287 287 287 287 287 287 287 287 287 287 286 286 286 286 286 286 286 286 286 286 287 287 287 287 287 287 287 287 287 287 287 287 287
290 290 290 290 290 289 289 289 289 289 289 290 290 290 289 289 289 289 290 290 289 289 288 288 288 288 287 287 287 286 285 286 287 287 287 286 286 286 286 286 286 286 287 287 287 287 286 286 287 287 287 287 287 287 287 287 287 287 287 287 287 286 286 286 286 286 286 286 286 286 286 286 286 286 286 286 286 286 286 287 287 287 287 287 287 287
290 290 289 289 289 289 289 289 289 289 288 289 289 288 288 288 288 288 288 289 289 289 288 288 288 288 288 288 287 286 285 286 286 286 286 286 286 285 285 286 286 286 286 286 287 286 283 285 286 287 287 287 287 287 286 286 287 287 287 287 287 286 286 286 286 286 286 286 286 286 286 286 286 286 286 286 286 286 286 286 286 287 287 287 287 287
289 289 289 288 288 288 288 288 288 288 288 288 288 287 287 287 287 287 287 288 288 288 288 288 288 288 288 288 287 286 286 286 286 286 286 286 286 285 285 285 285 285 286 286 286 286 284 285 286 286 287 287 287 287 286 286 286 286 286 286 286 286 286 286 286 286 286 286 286 286 286 286 286 286 286 286 286 286 286 286 286 287 287 287 287 286
288 288 288 287 287 287 287 287 287 287 287 287 287 287 287 287 287 287 287 287 287 287 287 288 288 288 288 287 287 286 286 286 286 286 286 286 286 285 285 285 285 285 285 285 285 285 285 285 285 286 287 287 287 287 286 286 286 286 286 286 286 286 286 286 286 286 285 286 286 286 286 286 286 286 286 286 286 285 285 285 286 286 286 286 286 286
287 287 287 286 286 286 286 286 286 286 286 286 286 286 286 286 286 286 286 286 286 287 287 287 287 287 287 287 287 286 286 286 286 286 286 286 285 285 285 285 285 285 285 285 285 285 284 284 285 285 286 286 286 286 286 286 286 285 286 285 285 285 285 285 285 285 285 285 285 285 285 285 285 285 285 285 285 285 285 285 285 285 285 285 285 285
286 285 285 285 285 285 285 285 285 285 285 285 285 285 285 285 286 286 286 286 286 286 286 286 287 287 287 287 287 287 287 286 286 286 285 285 285 285 285 285 285 285 285 285 284 284 284 284 284 284 284 284 285 285 285 285 285 285 285 285 285 285 285 285 285 285 285 285 285 285 285 285 285 285 285 285 285 285 284 284 284 284 284 284 284 284
285 284 284 284 284 284 284 284 284 284 284 285 285 285 285 285 285 285 285 286 286 286 286 286 286 286 286 286 287 287 287 286 286 285 285 285 285 285 285 284 284 285 285 284 284 284 283 283 283 283 283 283 283 284 284 284 284 284 284 284 284 284 285 284 284 284 285 285 285 285 285 285 285 285 284 284 284 284 284 284 284 284 284 284 284 284
284 284 284 284 284 284 284 284 284 284 284 284 284 284 284 284 284 285 285 285 285 285 286 286 286 286 286 286 286 286 286 286 285 285 285 285 285 285 285 284 284 284 284 284 284 283 283 283 283 283 283 283 283 283 283 283 283 283 283 283 284 284 284 284 284 284 284 284 284 284 284 284 284 284 284 284 284 284 284 284 284 284 284 284 283 283
284 284 284 284 284 284 284 284 284 284 284 284 284 284 284 284 284 284 284 284 285 285 285 285 285 285 285 285 285 285 285 285 285 285 285 284 284 285 285 284 284 284 284 284 284 283 283 283 283 283 283 283 283 283 283 283 283 283 283 283 283 283 284 284 284 284 284 284 284 284 284 284 284 284 284 284 284 284 283 283 283 283 283 283 283 283
284 284 284 284 284 284 284 284 284 284 284 284 284 284 284 284 284 284 284 284 284 284 284 284 284 284 284 284 284 284 284 284 284 284 284 285 285 285 285 285 284 284 284 284 284 283 283 283 283 283 283 283 283 283 283 283 283 283 283 283 283 283 283 283 284 284 284 284 284 284 283 283 283 283 283 283 283 283 283 283 283 283 283 283 283 283
284 284 284 284 284 284 284 284 284 284 284 284 284 284 284 284 284 284 284 284 284 284 284 284 284 284 284 284 284 284 284 284 284 285 285 285 285 285 285 285 284 284 284 284 283 283 283 283 283 283 283 283 283 283 283 283 283 283 283 283 283 282 282 283 283 283 284 283 283 283 283 283 283 283 283 283 283 283 282 282 282 283 283 283 282 282
284 284 283 283 283 283 283 283 283 283 283 283 284 284 284 284 284 284 284 284 284 284 284 284 284 284 284 284 284 284 284 285 285 285 285 285 285 285 285 285 285 284 284 284 284 284 284 284 283 283 283 283 283 283 283 283 283 283 282 282 282 282 282 282 283 283 283 283 283 283 283 283 283 283 283 282 282 282 282 282 282 282 282 282 282 282
284 283 283 283 283 283 283 283 283 283 283 283 283 283 283 284 284 284 284 284 284 284 284 284 284 285 285 285 285 285 285 285 285 285 285 285 285 285 285 285 284 284 284 284 284 284 284 283 283 283 283 283 283 283 283 283 282 282 282 282 282 282 282 283 283 283 283 283 283 283 282 282 282 282 282 282 282 282 282 282 282 282 282 282 282 282
283 283 283 283 283 283 283 283 283 283 283 283 283 283 283 284 284 284 284 284 284 284 284 284 284 284 284 285 285 285 285 285 285 285 285 285 284 284 284 284 284 284 283 283 283 283 283 283 283 283 283 283 283 282 282 282 282 282 282 282 282 282 282 283 283 283 283 282 282 282 282 282 282 282 282 282 282 282 282 282 282 282 282 282 282 282
283 283 283 283 283 283 283 283 283 283 283 283 283 283 283 283 284 284 284 284 284 284 284 284 284 284 284 284 284 284 284 284 284 284 284 284 284 284 284 284 284 283 283 283 283 282 282 282 282 282 282 282 282 282 281 281 281 281 282 282 282 282 282 282 282 282 282 282 282 282 281 281 281 282 282 282 282 281 281 281 282 282 282 282 282 282
283 283 283 283 283 283 283 283 283 283 283 283 283 283 283 283 283 284 284 284 284 284 284 284 284 284 283 283 283 284 284 284 283 283 283 283 283 283 283 283 283 282 282 282 282 282 282 282 282 281 281 281 281 281 281 281 281 281 282 282 282 282 282 282 282 282 282 281 281 281 281 281 281 281 281 281 281 281 281 281 281 282 282 282 282 282
283 283 283 283 282 282 282 282 282 283 283 283 283 283 283 283 283 283 283 284 284 284 283 284 284 283 283 283 283 283 283 283 283 283 283 283 282 282 282 282 282 282 282 281 281 281 281 281 281 281 281 281 281 281 281 281 281 282 282 282 282 282 282 282 282 281 281 281 281 281 281 281 280 280 280 280 280 280 281 281 281 281 282 282 282 282
282 282 282 282 282 282 282 282 282 283 283 283 283 283 283 283 283 283 283 283 283 283 283 283 283 282 282 282 282 282 282 282 282 282 282 282 282 282 282 282 281 281 281 281 281 281 281 281 281 281 281 281 281 281 281 282 282 282 282 282 282 282 282 281 281 281 281 281 281 281 280 280 280 280 280 280 280 281 281 281 281 281 282 282 282 282
281 281 281 281 282 282 282 282 282 283 283 283 283 283 282 282 282 282 282 282 282 282 282 282 282 282 282 282 282 282 282 282 282 282 282 282 282 281 281 281 281 280 280 280 280 280 280 281 281 281 281 281 281 281 281 282 282 282 282 282 282 281 281 281 281 281 281 281 280 280 280 280 280 280 280 280 280 281 281 281 281 281 281 282 282 282
281 281 281 281 281 282 282 282 282 283 283 283 282 282 282 282 282 281 281 282 282 282 282 282 282 282 282 281 281 281 281 281 281 281 281 281 281 281 281 281 280 280 280 280 280 280 280 280 281 281 281 281 281 281 282 282 282 282 282 281 281 281 281 280 280 280 280 280 280 280 280 280 280 280 280 280 281 281 281 281 281 281 281 282 281 281
280 280 280 281 281 281 282 282 282 282 282 282 282 282 282 281 281 281 281 281 281 281 282 281 281 281 281 281 281 281 281 281 281 281 281 281 281 280 280 280 280 279 279 280 280 280 280 280 280 280 281 281 281 281 282 282 281 281 281 281 281 280 280 280 280 280 280 280 280 280 280 280 280 280 280 281 281 281 281 281 281 281 281 281 281 281
Wind_Speed
20 21 21 23 23 22 20 20 21 22 23 24 25 26 27 29 29 29 29 31 34 37 37 37 35 33 31 30 29 29 30 32 34 35 35 34 33 31 29 28 26 25 24 23 22 20 19 17 16 15 14 13 13 12 11 11 10 9 8 8 8 9 10 10 9 9 9 9 9 10 10 11 12 12 12 12 11 10 10 9 9 8 7 8 8 8
18 19 20 21 22 22 20 19 20 21 22 23 24 25 26 27 28 28 28 29 32 35 36 36 35 34 32 30 29 28 28 29 29 30 30 30 29 27 25 24 22 21 19 18 17 16 16 15 15 14 13 12 12 11 10 9 9 8 8 9 10 11 11 11 10 10 10 10 10 11 11 11 11 11 11 10 9 9 8 8 8 7 7 8 8 8
18 19 20 20 21 21 20 19 20 21 22 23 24 24 25 26 26 26 26 28 30 33 34 34 34 33 32 29 28 27 26 26 25 25 25 25 24 23 21 20 19 17 16 15 14 14 13 13 13 12 11 10 10 9 9 8 8 8 9 11 11 12 12 11 11 11 11 11 11 11 11 10 10 9 8 8 7 8 8 7 7 6 7 7 8 8
19 18 20 20 20 20 20 20 21 21 22 23 24 24 25 25 25 25 26 27 29 31 32 32 32 32 31 29 27 26 25 24 23 22 21 20 20 19 18 17 16 15 14 13 13 12 11 11 10 9 9 9 8 8 8 8 8 9 10 11 12 12 11 11 11 11 11 11 10 10 10 9 8 8 7 7 7 7 7 6 6 6 7 8 8 8
18 18 19 20 19 19 20 21 21 21 22 23 23 23 24 24 25 25 25 26 27 29 30 30 31 31 31 29 27 25 24 23 22 20 19 18 17 17 17 17 16 15 14 13 11 10 9 8 8 8 8 8 7 7 7 7 8 9 10 11 11 11 10 10 10 10 10 9 9 9 8 7 7 6 6 6 6 6 6 6 6 6 7 8 8 9
16 17 19 19 18 18 18 19 20 21 22 22 22 22 23 23 23 23 23 23 24 26 28 29 29 30 29 28 26 24 23 23 22 20 18 17 16 16 16 16 15 14 13 11 10 8 7 7 7 7 7 7 6 6 6 6 7 9 10 10 10 9 9 9 9 8 8 8 7 7 6 6 6 6 6 6 5 5 5 6 6 7 7 8 9 9
15 17 18 19 18 18 17 17 18 19 20 21 21 21 21 21 21 20 20 20 20 22 23 25 25 25 24 24 22 21 20 20 19 18 17 15 14 13 13 12 12 11 10 9 8 7 7 7 7 7 6 6 6 5 6 6 7 8 9 9 9 8 8 8 7 7 7 6 6 5 5 5 5 5 5 5 5 6 6 6 7 7 8 9 9 9
15 16 17 17 17 17 16 16 16 18 19 20 20 19 19 18 18 17 17 17 16 17 17 18 19 19 19 18 18 17 16 16 16 15 14 12 11 10 10 9 9 9 8 8 8 8 8 8 8 7 7 6 5 5 5 6 7 8 8 8 8 7 7 7 6 6 5 5 4 4 4 4 5 5 5 5 6 6 7 7 8 8 9 9 9 10
16 15 15 16 17 16 14 14 15 16 18 19 19 19 18 17 16 15 15 14 13 13 14 15 15 16 15 15 15 14 13 13 12 12 12 11 11 10 10 10 9 9 9 9 10 10 10 9 9 8 7 6 5 5 5 6 7 7 7 7 7 6 6 5 5 4 4 4 4 4 4 4 5 5 5 6 6 7 8 8 8 9 9 9 10 10
16 15 14 15 15 15 14 14 14 16 16 17 18 18 18 18 17 15 14 13 13 13 13 13 14 15 14 13 13 13 12 12 11 11 11 11 11 12 11 11 11 10 10 10 10 10 10 9 8 6 6 5 5 5 6 6 7 7 6 6 6 5 5 5 4 4 3 3 3 3 4 5 5 5 5 6 7 7 8 9 9 9 9 10 10 10
14 14 14 13 13 14 14 15 15 16 16 16 16 16 16 16 16 15 14 13 12 12 12 12 13 14 14 13 12 11 11 11 11 11 10 11 11 11 11 11 11 11 10 10 9 9 8 7 6 5 5 5 5 5 6 7 6 6 6 5 5 5 4 4 4 3 3 3 3 3 4 5 5 6 6 6 7 8 8 9 9 9 10 10 10 10
12 12 12 12 12 13 13 15 16 16 16 16 14 13 13 14 14 13 14 13 13 13 12 12 12 12 12 12 12 11 10 11 10 10 10 10 10 10 10 10 10 10 10 9 9 8 8 7 6 6 5 5 6 6 7 7 6 5 5 4 4 4 4 3 3 2 2 2 3 4 4 5 5 6 6 7 8 8 8 9 9 10 10 10 10 10
12 12 12 12 12 12 13 14 15 15 16 15 13 12 13 14 14 14 14 14 13 13 13 13 12 11 10 10 11 11 11 11 10 10 10 10 10 10 9 9 10 10 10 10 9 9 8 8 7 7 6 6 7 7 7 6 5 5 4 4 4 4 3 3 2 2 2 2 3 4 5 5 6 6 7 7 8 8 8 9 9 10 10 10 10 10
12 12 11 11 11 12 14 15 15 15 15 15 15 16 17 17 17 15 14 13 13 13 14 14 13 12 10 10 9 10 10 11 11 11 10 10 10 10 10 10 10 11 10 10 10 9 8 8 7 7 7 8 8 8 7 6 5 4 4 4 4 3 3 2 2 2 2 3 3 4 5 5 6 6 7 8 8 8 9 9 9 10 10 10 10 10
13 12 11 10 10 12 14 15 15 15 15 16 16 16 17 18 17 16 15 14 14 14 15 15 13 12 11 10 10 10 10 11 12 11 11 10 10 10 10 11 11 11 11 10 10 9 8 7 7 7 8 8 8 8 7 5 4 4 4 4 4 3 3 2 2 2 3 3 4 5 5 6 6 7 7 8 8 9 9 9 10 10 10 10 10 11
14 13 11 11 11 13 14 15 15 14 14 15 15 16 16 17 17 17 16 16 17 16 15 13 10 8 8 10 11 11 10 11 11 12 11 11 11 10 11 12 12 12 11 10 9 9 8 8 8 8 9 9 8 7 6 5 4 4 4 4 4 3 2 2 2 3 3 4 4 5 6 6 7 7 8 8 9 9 9 10 10 10 10 11 11 11
14 13 12 12 12 13 14 15 15 14 14 15 15 16 17 18 18 18 17 18 17 16 14 11 7 4 4 7 10 12 11 10 10 10 10 11 11 11 11 12 12 12 11 10 9 9 9 9 9 9 9 9 8 6 5 4 4 4 4 4 3 3 3 3 3 4 4 5 5 6 6 7 7 8 8 8 9 9 10 10 10 10 11 11 11 11
14 14 13 12 12 13 14 15 15 14 15 15 15 15 16 17 18 18 18 18 17 14 12 10 7 4 4 4 9 12 12 10 9 9 9 10 11 11 12 12 12 12 11 10 9 9 9 9 9 9 9 8 7 6 4 4 4 4 4 4 4 4 4 4 4 5 5 5 6 6 7 7 8 8 8 9 9 10 10 10 10 11 11 11 11 11
14 14 13 12 12 13 15 16 16 16 16 17 17 16 16 16 16 17 18 18 16 14 12 9 6 5 4 4 8 13 13 10 9 9 10 11 11 12 13 13 12 11 10 10 9 9 9 9 9 9 8 7 6 5 5 4 4 4 4 4 4 4 4 5 5 5 6 6 6 7 7 8 8 8 9 9 9 10 10 10 10 11 11 11 12 12
14 14 13 13 13 13 14 16 18 19 19 19 19 18 17 16 16 16 16 16 15 14 13 10 7 5 4 6 10 13 13 11 10 11 12 12 12 13 13 12 11 11 10 9 8 8 8 8 8 8 7 7 6 6 5 5 5 5 4 4 4 4 4 5 5 6 6 6 7 7 8 8 8 8 9 9 9 9 10 10 10 11 11 11 12 12
14 14 15 15 14 14 14 17 19 20 20 21 20 19 18 17 16 15 15 15 14 13 11 8 6 6 7 9 12 14 14 13 13 12 11 11 12 12 12 11 10 9 9 8 7 7 7 7 7 7 7 7 7 6 6 6 5 5 4 4 4 4 4 5 5 6 6 7 7 8 8 8 8 8 8 9 9 9 10 10 10 11 11 11 12 12
14 16 16 15 15 15 15 17 19 20 20 20 20 20 19 18 17 16 16 15 14 12 10 8 7 7 9 11 13 15 15 14 12 11 9 8 9 11 11 10 9 8 8 7 6 6 6 6 6 7 7 7 7 7 7 6 6 5 4 3 3 3 4 4 5 6 6 7 7 7 8 8 8 8 8 9 9 10 10 10 10 11 11 11 12 12
12 14 15 14 14 13 13 15 17 19 19 19 20 19 19 18 18 17 17 16 14 13 12 10 10 10 10 12 13 14 14 13 11 9 7 6 8 10 10 9 8 7 7 6 6 6 6 6 7 7 7 7 7 7 6 6 5 4 3 2 2 3 3 4 5 5 6 6 7 7 7 7 8 8 8 9 9 10 10 10 10 11 11 11 11 11
11 13 13 13 12 11 12 14 16 18 18 19 18 18 17 17 17 17 17 17 16 15 14 13 12 12 12 12 12 12 12 11 10 7 6 5 6 8 10 8 7 6 6 6 6 6 6 6 7 7 7 7 6 5 5 4 3 3 3 3 3 3 4 4 5 5 5 6 6 7 7 7 8 8 9 9 9 10 10 10 10 10 10 11 11 11
10 11 11 10 10 9 10 12 14 16 17 18 18 17 16 16 16 16 17 17 17 16 15 14 13 12 12 11 11 10 10 10 9 6 4 4 6 8 9 8 6 5 5 5 6 6 6 6 7 7 6 6 5 5 5 5 4 4 4 4 4 4 4 5 5 5 5 5 6 7 7 8 8 9 9 9 9 9 10 10 10 10 10 10 11 11
10 11 10 9 9 8 9 10 11 13 14 15 17 17 17 17 17 17 18 18 18 17 17 14 11 9 9 9 9 8 8 8 8 6 4 4 5 6 7 7 6 5 4 4 5 5 5 5 6 6 6 6 6 7 7 7 6 5 5 5 5 5 5 5 5 5 5 6 6 7 8 8 9 9 9 9 9 9 9 10 10 10 10 10 11 11
12 12 11 11 10 10 10 11 11 12 12 13 14 15 16 17 18 19 18 19 19 19 17 12 8 7 7 7 7 7 7 7 7 6 4 4 4 4 4 5 4 3 3 3 4 4 4 6 7 7 7 7 7 7 7 7 6 6 5 5 5 5 5 5 5 5 6 7 8 8 9 9 9 9 9 9 9 9 9 9 10 10 10 11 12 12
12 12 11 11 12 12 12 12 13 13 12 12 12 12 14 17 19 20 20 20 21 19 17 12 8 6 5 5 6 7 7 7 6 6 5 4 4 4 3 2 2 1 1 2 3 5 6 8 9 9 9 9 8 7 6 6 6 6 6 6 6 6 6 6 7 7 8 8 9 9 9 9 8 8 8 9 9 9 9 9 9 10 11 11 12 13
15 14 13 12 12 12 13 13 13 13 13 13 13 12 12 14 16 18 20 20 20 18 16 14 11 7 5 5 6 7 7 6 6 6 5 4 3 3 3 1 0 1 2 4 4 5 7 9 10 10 10 9 8 6 5 5 5 6 6 6 6 6 7 7 8 9 9 9 9 8 8 8 8 8 8 8 8 8 8 9 9 10 11 12 12 13
19 18 17 16 15 14 14 14 14 14 14 14 14 13 12 11 11 13 15 16 18 18 16 14 12 9 7 6 5 4 5 6 7 6 6 4 3 3 3 1 1 2 4 4 4 4 5 8 10 11 10 9 7 5 5 5 5 6 6 5 6 6 7 8 8 8 8 8 7 7 7 7 7 7 7 7 7 7 8 8 9 10 11 12 13 14
21 21 21 20 19 18 17 16 15 15 14 14 14 13 12 10 9 10 11 13 15 16 16 15 14 12 10 6 3 1 3 7 9 8 7 4 4 4 3 2 2 3 5 5 4 3 2 5 9 11 10 9 6 4 4 5 5 5 5 5 5 5 6 7 7 7 6 6 5 5 5 6 6 6 6 6 6 7 7 8 8 9 11 12 14 15
21 21 21 20 19 18 17 16 16 15 15 15 14 14 13 11 10 10 11 12 13 14 15 15 15 14 11 7 4 3 3 8 10 10 8 5 4 5 4 3 3 4 5 5 4 3 2 3 7 10 11 9 7 5 5 5 5 5 5 5 5 5 5 5 5 4 4 4 4 4 4 5 5 5 5 6 6 7 7 8 8 10 11 13 15 16
21 20 20 19 18 16 15 14 13 13 14 14 14 13 13 12 12 12 12 12 12 12 13 14 15 14 12 8 5 4 5 9 11 11 9 6 5 5 5 4 4 4 5 5 4 4 3 3 4 7 9 9 8 6 6 5 4 4 4 5 5 4 4 3 3 3 3 3 3 4 4 4 5 5 6 6 7 7 8 8 9 10 12 13 15 17
19 18 18 17 15 14 13 12 12 12 12 12 12 11 11 11 12 12 12 12 11 10 10 12 14 14 13 10 7 6 6 10 11 11 9 7 5 5 5 5 5 5 5 5 4 4 4 3 2 3 4 5 5 5 4 3 3 4 5 6 6 5 4 3 2 2 2 3 3 3 4 4 5 6 6 7 8 8 9 9 10 11 12 13 15 17
17 16 15 14 13 13 12 11 11 11 11 11 10 10 10 10 10 11 12 12 11 10 9 10 11 11 12 11 9 8 8 10 10 10 9 7 6 5 6 5 5 5 5 5 4 4 3 3 2 2 2 2 1 1 2 2 3 5 7 7 7 6 5 4 4 4 3 3 3 3 4 5 6 7 7 8 9 10 10 11 11 12 13 14 15 16
14 13 13 12 12 12 12 11 11 11 11 10 10 9 9 9 9 9 10 10 10 10 10 10 10 9 9 9 9 9 10 10 10 9 8 6 5 5 5 5 5 5 5 5 5 4 3 3 3 2 3 3 2 1 1 3 6 8 8 8 7 6 5 6 6 5 5 4 4 5 5 7 8 8 9 10 10 11 12 12 13 14 15 16 16 16
13 13 12 12 12 12 12 12 12 12 11 11 10 9 9 8 8 8 8 8 9 9 9 10 10 9 8 7 6 7 9 9 8 8 7 5 4 4 4 5 5 5 4 5 5 4 4 3 2 1 1 2 3 3 4 6 8 9 10 9 8 7 6 6 6 6 6 6 6 7 9 10 11 11 12 12 12 13 14 14 15 17 17 18 17 17
13 13 13 12 12 12 13 13 13 12 12 11 11 10 9 8 8 8 7 7 7 7 8 8 8 8 8 7 7 7 8 8 7 6 5 4 4 4 5 6 6 5 4 4 4 4 3 3 1 0 2 3 3 5 6 7 8 9 10 9 9 8 8 7 7 6 6 7 8 10 12 13 13 14 14 14 15 15 17 17 18 19 19 19 18 17
14 13 13 12 12 12 12 13 13 12 12 11 11 10 10 9 8 8 7 7 7 7 7 7 7 8 8 8 8 8 7 7 6 5 5 5 5 5 5 6 6 5 4 3 3 3 2 2 1 1 2 3 5 6 7 7 8 8 9 9 9 9 9 8 7 6 7 8 11 13 15 15 15 15 16 16 17 18 19 20 21 21 20 19 18 16
13 13 12 11 11 11 11 11 11 11 11 10 10 10 10 9 9 8 8 7 7 7 7 7 8 8 8 8 8 7 7 6 6 6 6 6 6 6 5 5 5 4 3 2 2 2 2 2 3 3 4 5 6 7 7 7 8 8 9 9 9 9 11 10 8 7 8 10 13 16 17 17 17 17 18 18 19 19 20 21 21 21 19 18 17 17
13 12 12 11 10 10 9 9 9 9 9 9 9 9 9 10 10 10 9 9 9 8 8 8 8 9 8 8 8 7 7 7 6 6 6 6 6 5 5 4 4 3 2 1 1 2 3 4 5 5 6 7 8 8 8 8 8 8 8 9 10 11 12 11 9 9 10 12 15 16 18 18 19 19 19 20 20 20 21 21 20 20 18 16 15 16
13 12 12 10 9 9 8 7 7 7 7 7 8 9 9 10 10 10 10 10 10 10 10 10 10 10 9 9 8 8 7 7 6 6 6 5 5 4 4 3 2 1 1 1 2 2 3 4 6 7 7 8 9 9 9 9 9 8 8 9 11 12 11 9 8 10 12 15 16 17 18 19 20 21 22 22 22 22 21 20 19 18 17 15 14 14
12 12 11 9 8 7 6 6 6 6 6 6 7 8 9 10 10 10 11 11 10 10 9 9 9 10 9 9 8 8 7 7 6 5 5 4 3 3 2 2 2 2 2 2 3 4 4 5 6 7 7 8 9 10 11 11 11 10 9 9 10 10 9 9 10 12 14 16 17 17 17 19 20 22 23 24 24 23 21 19 17 16 15 14 13 13
11 10 9 8 7 6 5 5 5 5 6 6 7 8 9 9 10 10 10 10 9 9 8 9 9 9 10 9 9 8 7 7 6 5 4 4 3 2 2 2 2 2 2 3 4 4 5 6 7 7 8 9 10 11 12 12 12 11 10 10 10 10 10 11 14 16 16 16 16 16 17 19 21 23 24 25 24 22 19 18 17 16 14 13 13 13
9 8 8 7 6 6 5 5 5 5 6 7 8 8 8 9 9 9 9 9 8 8 7 7 8 9 9 9 9 8 8 7 6 5 5 4 3 2 2 2 2 2 2 3 4 5 6 7 8 9 10 10 11 12 12 12 12 12 12 11 11 12 13 14 15 16 16 15 15 16 18 19 21 22 24 24 22 20 18 17 16 16 15 14 14 14
7 7 7 6 6 5 5 5 5 6 7 8 8 8 8 8 8 8 8 8 8 7 7 7 7 7 7 7 8 8 7 7 6 5 4 4 3 2 1 1 1 2 2 3 5 6 7 9 10 11 12 13 13 13 12 12 12 13 14 14 14 14 15 15 15 14 13 14 16 17 19 19 20 20 21 21 21 20 19 17 16 16 16 15 15 15
6 6 6 6 5 5 5 5 6 7 8 8 8 8 8 8 8 8 7 7 7 6 6 6 5 6 6 6 6 5 5 4 4 4 4 3 2 1 0 1 2 3 4 5 6 7 9 10 11 12 13 13 13 13 13 12 12 13 14 15 15 15 15 14 13 12 13 15 17 18 19 19 19 19 19 19 19 19 19 18 17 16 16 16 15 15
6 6 6 6 5 5 5 6 7 8 9 9 8 8 7 7 7 7 7 6 6 5 5 5 5 5 4 4 3 3 2 2 1 1 1 1 0 1 2 3 3 4 6 7 8 9 10 10 11 11 11 12 12 13 13 13 12 12 13 14 14 14 14 13 13 13 15 16 17 18 17 17 17 17 18 18 19 19 19 19 18 17 17 16 15 15
5 6 6 6 6 6 6 7 7 8 9 9 8 8 7 6 5 5 6 6 5 4 4 4 4 4 4 3 2 1 1 0 1 2 2 2 2 3 4 5 6 7 7 8 8 8 8 8 8 8 8 9 10 12 12 12 11 10 11 11 12 12 13 13 14 15 16 17 17 17 16 16 16 16 17 18 19 20 20 20 19 18 17 15 15 16
5 6 6 6 6 7 7 7 7 8 8 8 8 7 7 6 5 5 5 5 5 4 4 4 4 4 3 2 2 1 1 1 1 2 2 3 3 4 5 6 7 8 8 8 8 8 7 7 6 5 4 4 6 7 9 9 9 9 9 10 11 12 13 15 16 17 17 17 16 16 16 15 15 15 16 17 18 20 21 21 20 18 17 17 17 18
6 6 6 6 7 7 7 7 8 8 8 7 7 7 6 6 5 5 4 4 4 4 4 4 3 3 3 2 1 1 1 1 1 2 2 3 3 4 5 6 7 7 8 8 8 8 9 9 8 6 4 2 2 4 6 7 8 9 10 11 12 13 15 16 16 17 16 16 16 15 15 15 15 15 15 15 17 19 20 21 20 19 19 19 20 21
Wind_Direction
191 192 194 196 194 191 190 191 191 189 187 184 181 178 175 171 167 163 162 170 177 182 186 187 186 183 180 179 179 179 180 181 182 183 183 182 180 178 177 177 178 179 181 183 187 191 196 201 206 209 210 211 211 212 214 217 218 219 219 219 220 220 220 220 222 225 228 232 236 238 242 246 251 257 262 268 273 278 282 285 289 295 303 307 307 304
184 185 185 188 190 189 186 185 185 184 180 176 173 170 168 163 160 156 154 156 162 169 176 179 178 176 172 172 173 174 173 174 177 179 179 179 177 175 175 175 176 179 182 186 190 194 199 202 204 205 206 207 208 210 211 213 213 214 216 218 220 221 221 223 226 229 232 235 239 243 247 253 259 264 269 273 277 280 284 287 293 301 307 307 304 301
174 177 179 182 185 186 185 182 181 181 177 174 170 167 165 161 157 153 150 149 152 158 165 169 171 171 170 169 169 170 170 170 171 173 174 175 175 176 177 178 180 184 189 192 196 198 201 203 203 203 203 203 204 205 207 210 212 216 220 223 225 226 228 230 233 236 239 242 246 251 256 261 266 270 273 276 280 283 287 291 299 306 307 304 301 299
170 171 176 178 180 183 183 180 178 177 175 173 171 169 167 163 158 154 150 148 149 154 161 167 171 172 170 169 168 169 170 171 171 172 174 176 178 180 182 185 189 194 199 202 203 202 202 201 200 199 198 197 198 201 206 211 217 223 227 230 232 233 235 238 241 243 247 250 254 259 264 268 271 274 277 280 285 289 294 299 304 306 304 302 300 299
170 172 174 175 175 177 179 178 176 175 174 173 170 168 167 163 159 155 152 150 149 152 158 165 170 170 169 167 167 168 171 172 174 175 176 178 181 184 187 191 196 201 205 206 204 201 198 195 195 194 193 193 195 199 206 215 224 230 234 237 238 240 241 243 246 249 253 257 262 266 270 273 276 279 283 287 292 297 301 303 303 302 302 302 300 299
169 171 173 172 170 169 172 173 174 174 173 170 168 166 163 160 156 152 148 146 146 148 152 157 161 164 164 163 164 166 170 172 174 176 177 179 181 183 186 190 194 198 200 200 196 191 187 187 189 191 191 192 194 200 209 220 230 235 239 241 243 244 245 248 251 255 260 263 267 270 274 278 284 289 293 298 302 305 305 302 301 302 303 302 300 299
164 168 170 170 169 167 166 168 171 172 170 165 163 161 157 154 151 148 146 145 144 144 146 149 153 156 159 161 162 165 168 170 172 173 174 174 176 176 177 180 183 185 185 182 179 176 176 179 184 189 191 193 197 204 215 226 234 239 242 244 246 247 249 251 255 258 261 265 267 272 278 286 293 298 303 306 308 307 306 303 302 303 304 300 298 298
154 161 165 165 163 162 161 163 167 170 169 163 157 153 151 149 148 147 147 147 146 144 144 145 148 152 156 161 163 166 168 169 169 169 168 165 161 159 157 159 161 162 163 163 165 170 175 180 185 190 195 200 205 211 220 230 237 241 244 246 247 249 251 252 254 256 258 261 267 275 284 292 298 302 305 307 307 306 305 303 302 304 302 299 297 297
148 152 159 160 157 154 153 157 163 167 167 163 158 152 147 146 146 146 145 144 145 146 147 146 147 149 155 162 166 168 169 169 168 166 162 156 150 146 144 145 148 151 156 162 170 177 184 189 193 197 201 206 210 215 222 229 235 239 242 245 247 249 250 250 249 249 251 258 268 280 289 294 298 300 301 301 302 302 302 302 302 302 301 298 297 298
146 147 150 156 159 158 152 153 159 165 167 165 163 159 154 148 144 142 141 142 145 148 151 151 149 149 152 160 166 168 167 166 165 165 162 159 156 154 152 154 157 161 167 174 182 188 192 195 197 199 202 204 209 215 221 227 231 235 238 243 246 247 247 245 243 243 249 260 274 285 292 293 293 294 295 296 298 299 300 301 301 301 300 299 298 299
138 142 143 146 155 161 159 157 159 164 168 167 166 164 162 158 152 145 141 140 144 149 153 155 154 152 151 157 164 167 165 163 163 166 167 167 166 165 165 167 170 174 179 185 190 193 193 192 190 191 194 200 208 215 221 224 227 230 233 238 241 243 241 239 238 241 251 268 282 291 294 294 294 293 294 295 296 297 299 300 301 301 301 300 299 299
133 137 141 145 150 155 160 161 162 165 168 167 165 166 170 171 168 161 151 145 145 148 151 154 156 156 155 155 159 164 165 162 161 164 167 169 170 170 170 173 177 180 183 186 188 189 187 184 181 181 190 198 208 215 220 222 223 225 228 232 234 235 233 232 234 245 261 280 292 298 299 300 299 299 299 299 299 300 300 302 302 302 302 301 301 302
136 139 142 148 152 155 159 160 163 167 171 173 173 173 176 178 178 172 162 154 151 152 152 150 150 152 155 157 157 158 160 160 161 162 163 164 164 164 166 170 174 178 180 182 185 186 185 182 181 183 191 199 208 214 217 218 218 219 221 224 225 224 223 226 235 251 274 290 299 302 305 304 304 304 303 303 303 303 304 304 303 303 302 301 302 303
138 144 147 152 160 166 168 168 170 175 181 186 186 184 181 179 178 174 164 156 155 157 155 148 144 144 147 151 155 158 159 158 158 159 159 159 159 160 163 170 174 177 179 180 183 185 184 182 183 187 195 201 207 210 212 213 212 212 213 214 213 214 218 224 242 264 283 296 301 304 305 304 304 304 304 304 304 305 305 304 303 301 300 300 301 302
147 151 156 165 174 179 180 180 182 185 189 190 189 186 182 179 177 174 163 153 152 155 152 145 142 143 145 148 152 157 161 158 157 156 157 159 160 162 168 174 177 179 179 179 180 180 179 179 182 191 199 202 204 205 207 206 205 205 205 204 205 209 218 235 258 279 292 299 301 302 302 303 303 303 302 302 302 303 303 302 301 301 300 301 302 302
158 161 168 176 184 188 189 189 188 189 189 189 189 185 179 175 175 173 165 155 153 153 148 140 136 140 154 163 162 160 161 160 157 156 157 161 164 168 174 178 179 177 176 175 175 175 175 178 185 193 198 201 202 203 202 200 199 199 198 199 205 215 234 256 276 289 295 298 297 298 299 300 301 300 300 299 299 300 300 299 299 300 300 301 301 302
166 170 176 182 188 192 193 192 190 188 187 187 188 187 182 177 175 172 166 160 157 154 153 148 141 135 158 175 174 169 165 162 159 159 161 165 170 174 179 182 182 179 174 174 173 173 174 179 186 193 196 199 200 200 199 197 196 197 200 206 218 234 252 271 283 290 293 293 293 293 294 296 297 298 297 297 297 296 296 297 298 298 299 299 299 300
172 177 181 184 187 190 191 190 189 188 187 185 184 184 182 179 176 172 168 163 159 157 159 160 156 143 142 167 182 179 168 163 161 162 167 173 177 180 184 187 186 181 174 171 171 173 176 182 188 192 195 198 199 198 196 197 199 204 209 220 233 248 263 275 282 286 286 287 288 289 290 293 294 295 295 294 294 294 295 295 296 296 296 296 297 298
176 181 184 185 185 186 186 187 188 187 185 183 180 176 172 173 172 170 167 165 163 160 159 160 157 148 144 159 174 173 166 163 166 172 176 183 185 186 189 189 186 180 172 167 168 174 181 187 192 195 198 200 200 198 196 199 204 210 218 230 242 255 266 273 278 280 282 284 286 288 290 292 293 293 293 292 292 292 292 293 293 293 294 295 296 297
177 183 186 186 184 183 185 189 191 190 187 186 182 176 170 169 168 166 164 163 163 163 164 160 158 158 163 162 164 165 164 165 172 177 179 185 188 188 190 189 185 178 169 166 170 178 186 193 199 203 206 208 207 204 202 203 208 213 221 233 245 257 267 272 277 279 282 285 288 290 292 293 294 293 293 292 292 291 290 291 291 292 293 294 294 295
179 185 190 193 189 185 187 192 194 194 192 190 185 178 173 171 168 166 166 164 162 160 160 156 159 170 175 167 163 165 169 172 176 178 176 181 185 185 186 185 182 176 170 170 177 186 195 204 211 215 218 221 221 219 215 213 213 214 220 230 243 257 269 276 280 283 286 289 292 294 295 296 296 295 294 292 292 291 291 291 292 292 292 293 293 293
190 189 196 202 203 199 196 196 196 196 196 193 186 180 178 174 170 168 169 167 162 157 155 157 164 173 174 167 166 170 174 179 186 188 179 171 174 179 180 182 180 175 172 179 190 200 209 219 226 232 234 236 237 236 232 226 219 215 215 225 241 260 274 282 285 288 290 293 295 297 298 298 297 296 295 294 293 292 292 292 292 292 291 292 292 293
202 197 198 202 207 208 205 200 196 195 196 195 192 189 187 183 178 173 172 169 166 163 164 167 169 168 166 165 167 171 177 183 190 193 184 160 161 173 178 182 182 179 181 191 205 217 227 236 242 246 247 247 247 245 240 230 219 210 209 222 245 264 273 278 283 288 292 296 298 299 300 299 298 297 295 294 293 292 292 292 291 291 291 292 293 295
197 195 194 196 201 205 206 200 194 192 192 193 194 193 193 191 187 182 179 176 174 172 171 169 164 159 161 163 166 171 177 182 186 188 183 159 157 169 179 185 187 189 196 208 222 232 240 247 250 251 250 246 241 234 223 207 193 189 201 218 237 252 263 272 278 286 294 297 299 298 298 297 296 295 294 293 291 291 290 290 290 291 292 294 296 298
178 179 180 183 187 191 194 192 189 188 188 189 189 189 187 186 183 180 178 177 175 172 168 160 152 150 156 163 167 170 174 177 179 179 174 145 147 163 182 191 197 200 208 224 236 241 246 248 246 243 238 227 212 198 186 179 181 192 206 220 234 247 262 271 278 285 291 294 295 294 293 293 293 291 290 289 287 286 286 287 289 291 294 296 298 299
152 154 154 155 159 165 170 174 177 179 182 184 185 185 183 179 174 170 167 167 167 165 158 150 148 153 161 166 167 168 168 172 177 178 165 139 137 156 182 197 208 216 224 238 243 243 239 229 223 217 209 198 190 186 186 189 197 209 222 235 248 259 265 269 273 279 285 287 288 289 289 289 288 286 285 284 283 283 284 285 288 291 294 296 296 295
139 140 141 141 143 147 151 156 161 165 170 175 180 182 181 175 167 159 156 163 167 166 159 156 156 159 164 168 170 168 166 167 170 172 165 143 129 136 165 194 213 228 236 237 234 223 199 188 186 185 181 181 183 188 196 206 218 232 246 256 263 267 267 266 269 274 279 282 285 286 287 286 284 284 283 283 283 283 284 286 289 291 294 294 293 292
128 129 131 134 136 140 144 147 150 154 158 164 170 177 179 174 164 158 161 169 172 170 167 163 157 151 155 164 173 175 170 164 163 166 168 155 125 117 141 178 210 225 188 167 174 177 171 170 173 174 174 177 183 193 206 221 238 252 261 264 265 265 265 265 269 273 278 281 283 285 285 285 285 285 285 285 285 286 287 290 292 294 295 294 294 295
118 118 121 124 128 133 139 142 145 148 152 157 162 169 175 177 173 171 172 175 175 174 173 172 168 160 149 155 168 176 177 172 170 173 175 163 129 118 143 155 171 142 135 129 139 153 163 169 172 174 174 179 187 199 217 238 252 260 260 259 258 259 262 268 272 276 279 280 281 282 282 283 285 286 287 288 288 289 290 294 296 298 297 298 298 299
127 127 127 127 129 133 137 139 142 147 153 157 160 164 170 177 184 185 181 179 179 180 179 179 177 170 151 139 145 171 193 191 189 186 182 161 134 127 145 143 131 135 138 133 127 134 158 174 178 178 179 182 190 207 234 254 260 256 251 248 251 257 266 273 277 278 279 278 277 276 277 278 281 283 285 287 290 293 296 298 301 303 304 304 304 303
138 138 136 137 139 141 142 144 146 151 157 160 162 165 168 173 184 193 193 189 188 188 187 185 183 177 164 144 127 154 206 197 195 193 186 166 140 135 147 140 134 141 147 142 138 140 157 176 185 189 188 189 198 222 255 262 256 248 243 245 254 266 276 281 281 279 276 272 270 269 270 272 274 278 283 286 291 295 300 304 308 311 312 311 309 306
142 141 141 142 144 146 148 149 152 155 159 162 164 167 170 173 178 187 196 198 199 199 196 192 188 183 177 167 156 160 174 184 189 191 187 169 148 146 153 146 133 137 151 146 141 138 144 156 185 197 199 203 215 240 260 256 246 241 246 258 273 286 290 288 283 276 271 266 263 263 265 267 270 275 282 287 292 296 301 308 315 319 319 315 310 305
140 140 141 143 145 146 148 149 152 156 159 162 165 168 171 173 174 177 185 193 200 205 204 198 191 185 182 176 162 151 157 170 178 184 184 171 152 147 153 152 140 133 140 139 136 130 128 127 166 190 201 213 229 243 247 242 239 250 273 294 306 310 307 295 286 277 271 265 263 262 265 266 269 274 281 288 294 300 305 311 318 321 319 314 308 304
138 138 140 142 143 143 144 146 149 152 156 159 162 166 170 171 172 173 176 182 188 196 203 204 198 191 186 178 161 146 152 164 172 177 177 168 154 145 150 152 148 140 132 125 121 120 114 108 120 166 201 218 229 233 228 229 253 289 310 319 324 326 327 319 308 296 285 275 271 272 274 273 277 283 290 296 302 307 311 316 318 317 314 310 306 303
137 138 139 140 140 140 140 141 144 146 149 152 156 160 164 168 170 172 174 177 178 180 183 192 198 199 199 194 181 166 162 165 169 172 170 164 153 144 145 149 152 148 137 123 114 107 98 83 69 38 340 310 281 218 212 250 295 313 323 328 332 334 336 334 326 317 307 294 287 286 291 293 297 302 306 310 313 315 317 317 316 313 309 306 303 301
134 134 136 138 139 138 138 140 142 144 145 148 151 155 160 164 168 171 174 176 178 178 178 182 187 195 202 208 202 186 172 169 168 166 163 161 155 147 142 144 148 146 137 122 109 98 90 75 56 26 349 326 317 312 300 304 310 316 324 330 335 337 337 332 326 321 315 311 313 316 318 320 320 320 319 319 319 318 317 316 314 312 309 306 303 299
130 128 129 132 134 135 135 138 140 142 142 144 148 152 156 160 164 168 172 175 177 179 180 183 186 189 192 196 191 182 175 171 167 162 159 158 158 151 140 137 139 138 130 117 106 93 83 76 56 16 308 270 269 281 297 307 313 319 325 329 331 332 331 326 321 318 316 321 327 331 333 333 331 329 325 322 320 318 317 316 315 314 312 310 306 300
126 123 123 125 128 130 131 132 134 136 138 139 142 145 150 154 157 161 166 169 172 175 176 178 181 182 182 177 173 171 172 171 167 161 157 152 153 149 139 133 129 125 113 100 88 80 72 74 76 280 270 269 276 286 294 302 308 314 318 321 323 323 322 320 318 317 320 326 332 335 335 335 333 330 326 324 322 321 319 318 318 317 315 313 308 303
124 122 121 121 123 125 126 127 128 131 135 137 139 142 145 148 151 153 155 158 159 161 164 166 168 168 169 168 168 169 171 172 170 164 154 146 143 141 137 131 126 118 99 78 61 50 42 43 34 313 291 290 294 297 300 302 306 310 314 316 316 316 318 320 322 324 329 334 335 335 333 332 330 328 326 325 324 323 322 320 319 318 317 314 310 304
128 126 124 123 124 125 125 125 127 130 133 136 139 142 143 144 145 147 148 148 148 148 149 152 154 156 158 159 162 165 169 170 167 159 150 142 138 135 133 129 124 118 101 77 46 19 3 344 327 311 301 295 296 297 299 300 304 309 314 316 312 312 317 323 329 334 338 337 335 333 331 329 327 326 325 324 323 321 320 318 317 317 315 312 308 305
132 131 129 129 129 129 128 127 128 129 132 135 137 139 140 142 141 141 142 142 141 140 141 142 143 145 148 150 152 155 159 159 156 151 146 141 136 132 130 128 126 126 121 100 344 332 326 317 309 302 298 296 296 295 294 295 299 307 312 311 308 309 315 322 331 337 337 335 333 331 329 327 325 323 321 320 318 317 316 315 314 313 312 310 306 303
135 135 136 136 137 136 133 131 131 133 135 136 137 138 140 142 142 141 140 137 135 134 135 135 134 135 138 140 144 146 147 147 147 147 146 144 140 134 131 136 145 163 203 258 278 290 300 304 302 300 298 299 298 295 294 294 298 303 306 307 309 313 317 320 329 334 332 330 329 328 327 325 322 320 318 316 315 314 313 312 311 310 308 306 305 302
140 140 142 144 145 144 143 141 139 138 138 139 140 141 143 145 145 145 143 138 135 133 133 134 133 133 134 135 138 141 143 144 144 146 148 148 149 146 147 157 178 210 253 275 285 290 294 297 297 296 298 298 296 294 293 295 298 301 303 306 311 314 313 315 321 325 324 324 325 325 324 322 320 317 315 313 313 312 312 311 308 306 306 305 304 303
145 146 150 153 156 158 159 155 149 145 143 142 141 142 144 147 150 150 148 143 139 137 136 135 136 134 130 129 129 133 136 141 143 143 146 149 154 164 174 190 209 236 267 284 296 302 302 297 291 290 292 292 291 290 290 293 296 299 301 305 307 306 303 308 314 318 319 321 322 323 322 321 319 316 313 312 311 311 311 309 307 307 308 309 308 307
154 157 161 165 170 172 171 166 157 150 146 144 142 141 143 148 152 153 151 147 144 143 141 140 139 133 124 123 125 127 129 132 135 136 137 141 150 166 190 209 227 248 270 283 292 300 303 298 294 291 290 289 286 285 286 289 293 296 299 304 307 307 305 309 313 316 318 321 322 323 323 322 319 317 314 313 312 312 310 309 308 309 312 314 313 311
168 172 176 181 184 184 179 172 162 155 150 146 142 140 142 145 149 152 152 151 149 148 148 150 143 132 121 123 127 129 129 130 131 131 128 125 131 149 183 218 248 264 278 284 286 287 289 291 293 293 294 292 288 284 282 286 290 295 300 307 311 311 311 313 317 320 323 323 323 324 325 324 322 320 317 314 312 311 311 309 309 310 312 314 313 312
185 189 191 192 192 188 181 174 167 160 154 148 143 140 140 143 145 147 148 151 151 151 151 153 145 133 125 124 125 124 119 122 128 132 129 120 112 108 167 262 274 281 284 285 285 284 282 281 282 285 288 289 288 286 287 292 297 301 306 312 314 314 314 317 321 324 325 324 325 326 328 328 326 322 317 313 310 309 309 309 309 310 311 312 312 311
196 197 197 197 193 187 181 176 170 164 158 152 148 145 144 145 145 143 141 144 149 151 150 148 139 132 131 135 134 127 115 97 88 97 122 111 60 323 307 297 293 291 290 290 289 286 283 280 278 278 279 282 283 286 292 301 308 312 316 318 318 318 318 320 323 324 324 325 326 328 330 329 325 320 316 313 309 307 306 306 307 309 310 311 311 310
197 195 194 192 187 182 177 173 169 164 160 157 154 151 149 149 151 148 143 144 149 151 147 143 139 136 136 140 146 151 159 338 340 339 336 336 325 312 303 302 303 304 305 305 303 299 296 290 284 281 281 281 284 289 296 307 315 321 322 322 322 322 322 322 322 323 324 325 326 327 328 326 323 320 316 311 307 305 305 305 306 307 309 310 309 308
198 195 191 187 179 173 170 168 165 164 163 163 160 158 156 155 154 151 150 149 149 150 149 149 149 149 150 154 159 170 204 286 314 323 325 320 315 311 309 309 313 319 322 325 328 330 331 324 318 309 294 291 295 300 306 314 321 323 322 321 321 321 321 321 321 322 324 324 325 325 325 323 322 320 316 309 305 304 304 305 305 306 308 310 309 309
210 205 197 187 177 170 167 167 167 167 167 168 168 167 164 160 157 154 153 153 151 152 154 158 161 164 168 178 189 198 219 246 272 286 292 297 302 310 316 319 325 333 339 342 344 347 349 347 346 344 343 19 349 321 319 322 325 325 323 320 320 321 321 321 321 321 322 322 322 322 321 320 319 317 312 307 304 304 305 305 305 306 308 311 311 311